ACA290 KMIA-KEWR

Flight info

Callsign ACA290
Flight time N/A
Altitude 36000
Route FOLZZ3 ALYRA GRUBR/N0469F370 Y299 SEELO GARIC Q129 AARNN QUART PHLBO4
Aircraft B738/M-SDGIJ1LRWY/SB1

Departure

Time 2026-05-04 14:13
Airport Miami International Airport (KMIA)

Arrival

Time N/A
Airport Newark Liberty International Airport (KEWR)
Time Latitude Longitude Altitude Speed Heading
2026-05-04 14:06 25.79709 -80.27068 12 ft 0 kts 323°
2026-05-04 14:08 25.79722 -80.27075 11 ft 9 kts 338°
2026-05-04 14:08 25.79846 -80.27037 12 ft 34 kts 21°
2026-05-04 14:09 25.79991 -80.27055 11 ft 17 kts 296°
2026-05-04 14:09 25.80045 -80.27223 12 ft 32 kts 291°
2026-05-04 14:10 25.80055 -80.27788 12 ft 48 kts 269°
2026-05-04 14:10 25.80062 -80.28120 12 ft 51 kts 268°
2026-05-04 14:10 25.80039 -80.28464 12 ft 50 kts 267°
2026-05-04 14:10 25.80025 -80.28801 12 ft 50 kts 266°
2026-05-04 14:11 25.79993 -80.29140 12 ft 49 kts 271°
2026-05-04 14:11 25.79968 -80.29833 12 ft 47 kts 269°
2026-05-04 14:11 25.80062 -80.30014 12 ft 32 kts 79°
2026-05-04 14:12 25.80065 -80.29969 11 ft 0 kts 85°
2026-05-04 14:12 25.80065 -80.29968 11 ft 2 kts 85°
2026-05-04 14:12 25.80130 -80.28614 97 ft 178 kts 89°
2026-05-04 14:13 25.80207 -80.27451 1255 ft 171 kts 76°
2026-05-04 14:13 25.80355 -80.26367 2210 ft 179 kts 84°
2026-05-04 14:13 25.80241 -80.25127 2961 ft 200 kts 104°
2026-05-04 14:13 25.79773 -80.23856 3775 ft 216 kts 115°
2026-05-04 14:14 25.79121 -80.22522 4642 ft 231 kts 119°
2026-05-04 14:14 25.77620 -80.19589 6323 ft 264 kts 120°
2026-05-04 14:14 25.76731 -80.17818 7263 ft 279 kts 120°
2026-05-04 14:15 25.74954 -80.13941 9245 ft 305 kts 110°
2026-05-04 14:15 25.75047 -80.09506 10982 ft 330 kts 65°
2026-05-04 14:16 25.75989 -80.07766 11645 ft 339 kts 49°
2026-05-04 14:16 25.77555 -80.05715 12408 ft 355 kts 45°
2026-05-04 14:17 25.81012 -80.01472 13791 ft 392 kts 44°
2026-05-04 14:17 25.82861 -79.99184 14483 ft 409 kts 45°
2026-05-04 14:17 25.86801 -79.94234 15663 ft 444 kts 46°
2026-05-04 14:18 25.88869 -79.91611 16228 ft 460 kts 46°
2026-05-04 14:18 25.93184 -79.86105 17646 ft 479 kts 46°
2026-05-04 14:19 25.97594 -79.80460 19352 ft 489 kts 45°
2026-05-04 14:19 25.99841 -79.77586 20166 ft 493 kts 45°
2026-05-04 14:19 26.02087 -79.74716 20927 ft 499 kts 45°
2026-05-04 14:19 26.04376 -79.71794 21588 ft 506 kts 45°
2026-05-04 14:20 26.06689 -79.68841 22434 ft 508 kts 45°
2026-05-04 14:20 26.09042 -79.65834 23109 ft 515 kts 44°
2026-05-04 14:20 26.11363 -79.62783 23883 ft 520 kts 46°
2026-05-04 14:21 26.15755 -79.56260 25135 ft 534 kts 50°
2026-05-04 14:21 26.17880 -79.52875 25614 ft 542 kts 51°
2026-05-04 14:21 26.19998 -79.49433 26486 ft 541 kts 51°
2026-05-04 14:21 26.22109 -79.45984 27414 ft 539 kts 51°
2026-05-04 14:22 26.24220 -79.42540 28370 ft 535 kts 50°
2026-05-04 14:22 26.26328 -79.39186 29296 ft 530 kts 47°
2026-05-04 14:22 26.28646 -79.36022 30191 ft 521 kts 41°
2026-05-04 14:22 26.31211 -79.33249 31025 ft 512 kts 35°
2026-05-04 14:23 26.36824 -79.28596 32498 ft 500 kts 26°
2026-05-04 14:23 26.39805 -79.26524 33153 ft 499 kts 24°
2026-05-04 14:23 26.42779 -79.24544 33790 ft 499 kts 23°
2026-05-04 14:24 26.45789 -79.22558 34308 ft 502 kts 23°
2026-05-04 14:24 26.48816 -79.20541 34747 ft 507 kts 24°
2026-05-04 14:24 26.51875 -79.18465 35265 ft 511 kts 24°
2026-05-04 14:24 26.54915 -79.16366 35795 ft 513 kts 25°
2026-05-04 14:25 26.57972 -79.14224 36038 ft 517 kts 25°
2026-05-04 14:25 26.67047 -79.07751 36041 ft 508 kts 25°
2026-05-04 14:26 26.73038 -79.03441 36043 ft 509 kts 26°
2026-05-04 14:26 26.79038 -78.99125 36043 ft 508 kts 25°
2026-05-04 14:27 26.85009 -78.94827 36044 ft 508 kts 25°
2026-05-04 14:27 26.90964 -78.90542 36045 ft 505 kts 25°
2026-05-04 14:28 26.96913 -78.86255 36054 ft 506 kts 26°
2026-05-04 14:28 27.02866 -78.81963 36052 ft 509 kts 26°
2026-05-04 14:29 27.14768 -78.73355 36055 ft 507 kts 25°
2026-05-04 14:30 27.20739 -78.69033 36056 ft 508 kts 25°
2026-05-04 14:31 27.30005 -78.63668 36055 ft 486 kts
2026-05-04 14:32 27.43152 -78.61242 36059 ft 471 kts 357°
2026-05-04 14:32 27.49711 -78.60468 36063 ft 475 kts 357°
2026-05-04 14:33 27.56264 -78.59681 36061 ft 468 kts 357°
2026-05-04 14:33 27.62813 -78.58870 36067 ft 473 kts 358°
2026-05-04 14:34 27.69362 -78.58031 36065 ft 473 kts 358°
2026-05-04 14:34 27.75916 -78.57179 36068 ft 469 kts 358°
2026-05-04 14:35 27.82458 -78.56327 36070 ft 473 kts 358°
2026-05-04 14:35 27.88985 -78.55475 36071 ft 471 kts 358°
2026-05-04 14:36 27.95521 -78.54616 36073 ft 468 kts 358°
2026-05-04 14:36 28.02086 -78.53758 36074 ft 472 kts 358°
2026-05-04 14:37 28.08277 -78.52945 36074 ft 469 kts 358°
2026-05-04 14:37 28.14770 -78.52090 36079 ft 468 kts 358°
2026-05-04 14:38 28.21267 -78.51238 36076 ft 468 kts 358°
2026-05-04 14:38 28.27760 -78.50383 36081 ft 468 kts 358°
2026-05-04 14:39 28.34249 -78.49530 36083 ft 470 kts 357°
2026-05-04 14:39 28.40736 -78.48674 36082 ft 467 kts 357°
2026-05-04 14:40 28.50409 -78.47395 36092 ft 468 kts 357°
2026-05-04 14:40 28.56852 -78.46544 36092 ft 468 kts 357°
2026-05-04 14:41 28.63347 -78.45682 36097 ft 464 kts 357°
2026-05-04 14:42 28.75737 -78.44038 36096 ft 465 kts 357°
2026-05-04 14:42 28.82175 -78.43182 36102 ft 464 kts 357°
2026-05-04 14:43 28.88598 -78.42325 36105 ft 464 kts 357°
2026-05-04 14:43 28.95003 -78.41470 36109 ft 462 kts 356°
2026-05-04 14:44 29.01397 -78.40619 36111 ft 462 kts 356°
2026-05-04 14:44 29.07616 -78.39791 36115 ft 465 kts 357°
2026-05-04 14:45 29.14046 -78.38928 36122 ft 462 kts 357°
2026-05-04 14:45 29.19997 -78.38131 36125 ft 464 kts 357°
2026-05-04 14:46 29.26408 -78.37275 36119 ft 464 kts 357°
2026-05-04 14:46 29.32565 -78.36445 36124 ft 463 kts 357°
2026-05-04 14:47 29.38803 -78.35612 36123 ft 467 kts 357°
2026-05-04 14:47 29.45233 -78.34825 36129 ft 461 kts 354°
2026-05-04 14:48 29.51507 -78.35201 36141 ft 445 kts 341°
2026-05-04 14:48 29.57282 -78.36792 36135 ft 439 kts 335°
2026-05-04 14:49 29.63136 -78.38773 36135 ft 437 kts 335°
2026-05-04 14:49 29.68940 -78.40758 36134 ft 437 kts 335°
2026-05-04 14:50 29.74760 -78.42713 36124 ft 439 kts 335°
2026-05-04 14:50 29.80634 -78.44655 36129 ft 436 kts 336°
2026-05-04 14:51 29.86492 -78.46573 36128 ft 437 kts 335°
2026-05-04 14:51 29.92346 -78.48490 36128 ft 438 kts 335°
2026-05-04 14:52 29.98246 -78.50422 36133 ft 440 kts 336°
2026-05-04 14:52 30.04160 -78.52357 36132 ft 439 kts 336°
2026-05-04 14:53 30.10021 -78.54263 36135 ft 441 kts 337°
2026-05-04 14:53 30.15874 -78.55478 36136 ft 454 kts 349°
2026-05-04 14:54 30.22278 -78.55157 36139 ft 463 kts 358°
2026-05-04 14:54 30.28699 -78.54224 36134 ft 468 kts 360°
2026-05-04 14:55 30.35162 -78.53188 36138 ft 470 kts
2026-05-04 14:55 30.41134 -78.52249 36139 ft 467 kts 359°
2026-05-04 14:56 30.47598 -78.51228 36138 ft 467 kts
2026-05-04 14:56 30.54062 -78.50153 36136 ft 468 kts
2026-05-04 14:57 30.60528 -78.49081 36142 ft 471 kts
2026-05-04 14:57 30.66963 -78.48021 36147 ft 468 kts
2026-05-04 14:58 30.73427 -78.46962 36150 ft 468 kts
2026-05-04 14:58 30.78824 -78.46081 35909 ft 470 kts
2026-05-04 14:59 30.83126 -78.45381 36152 ft 473 kts
2026-05-04 14:59 30.86399 -78.44849 36135 ft 471 kts
2026-05-04 15:00 30.96103 -78.43260 36153 ft 470 kts
2026-05-04 15:00 31.02598 -78.42199 36153 ft 471 kts
2026-05-04 15:01 31.12313 -78.40609 36147 ft 471 kts
2026-05-04 15:01 31.18801 -78.39546 36146 ft 471 kts
2026-05-04 15:02 31.25311 -78.38474 36145 ft 467 kts
2026-05-04 15:02 31.31778 -78.37409 36157 ft 470 kts
2026-05-04 15:03 31.38256 -78.36343 36166 ft 470 kts
2026-05-04 15:03 31.44726 -78.35276 36163 ft 471 kts
2026-05-04 15:04 31.51239 -78.34199 36167 ft 469 kts
2026-05-04 15:04 31.57680 -78.33134 36164 ft 469 kts
2026-05-04 15:05 31.64192 -78.32056 36163 ft 470 kts
2026-05-04 15:05 31.70645 -78.30987 36162 ft 470 kts
2026-05-04 15:06 31.77109 -78.29911 36168 ft 469 kts
2026-05-04 15:07 31.86818 -78.28295 36157 ft 469 kts
2026-05-04 15:07 31.93299 -78.27214 36154 ft 468 kts
2026-05-04 15:08 31.99737 -78.26139 36161 ft 468 kts
2026-05-04 15:08 32.06156 -78.25093 36154 ft 465 kts
2026-05-04 15:09 32.12594 -78.24150 36155 ft 465 kts 360°
2026-05-04 15:09 32.19039 -78.23233 36153 ft 465 kts 360°
2026-05-04 15:10 32.28699 -78.21847 36152 ft 466 kts 360°
2026-05-04 15:11 32.38316 -78.20445 36155 ft 463 kts 360°
2026-05-04 15:11 32.44733 -78.19501 36151 ft 464 kts 360°
2026-05-04 15:12 32.51100 -78.18567 36154 ft 463 kts
2026-05-04 15:12 32.57486 -78.17626 36157 ft 462 kts 360°
2026-05-04 15:13 32.63898 -78.16684 36156 ft 465 kts
2026-05-04 15:13 32.70345 -78.15732 36158 ft 464 kts
2026-05-04 15:14 32.76725 -78.14788 36161 ft 462 kts
2026-05-04 15:14 32.83110 -78.13839 36147 ft 459 kts 360°
2026-05-04 15:15 32.89472 -78.12897 36160 ft 461 kts 360°
2026-05-04 15:15 32.95838 -78.11951 36163 ft 460 kts
2026-05-04 15:16 33.05413 -78.10529 36158 ft 462 kts 360°
2026-05-04 15:17 33.14990 -78.09099 36152 ft 459 kts 360°
2026-05-04 15:17 33.24505 -78.07679 36144 ft 459 kts 360°
2026-05-04 15:18 33.30897 -78.06722 36151 ft 460 kts 360°
2026-05-04 15:19 33.40404 -78.05296 36155 ft 460 kts 360°
2026-05-04 15:19 33.49959 -78.03858 36148 ft 457 kts 360°
2026-05-04 15:20 33.56325 -78.02900 36142 ft 460 kts 360°
2026-05-04 15:20 33.62753 -78.01932 36142 ft 460 kts 360°
2026-05-04 15:21 33.69260 -78.00949 36143 ft 459 kts 360°
2026-05-04 15:22 33.78871 -77.99493 36143 ft 458 kts 360°
2026-05-04 15:22 33.88338 -77.98099 36140 ft 457 kts 358°
2026-05-04 15:23 33.94645 -77.97685 36141 ft 454 kts 354°
2026-05-04 15:23 34.00949 -77.97521 36139 ft 451 kts 353°
2026-05-04 15:24 34.13444 -77.97197 36133 ft 451 kts 354°
2026-05-04 15:25 34.19773 -77.96994 36130 ft 453 kts 354°
2026-05-04 15:26 34.29200 -77.96661 36127 ft 453 kts 354°
2026-05-04 15:26 34.38618 -77.96321 36129 ft 452 kts 354°
2026-05-04 15:27 34.48037 -77.95978 36119 ft 452 kts 354°
2026-05-04 15:28 34.57442 -77.95634 36119 ft 450 kts 353°
2026-05-04 15:29 34.66868 -77.95293 36119 ft 452 kts 353°
2026-05-04 15:30 34.88775 -77.94488 36112 ft 450 kts 353°
2026-05-04 15:31 34.98109 -77.94147 36106 ft 450 kts 353°
2026-05-04 15:32 35.13780 -77.93572 36101 ft 448 kts 353°
2026-05-04 15:34 35.29308 -77.92996 36107 ft 448 kts 353°
2026-05-04 15:34 35.38630 -77.93264 36093 ft 444 kts 348°
2026-05-04 15:35 35.47810 -77.94129 36102 ft 439 kts 347°
2026-05-04 15:36 35.56987 -77.94971 36096 ft 442 kts 347°
2026-05-04 15:36 35.63128 -77.95499 36092 ft 443 kts 347°
2026-05-04 15:37 35.69262 -77.96013 36086 ft 442 kts 348°
2026-05-04 15:37 35.75382 -77.96525 36084 ft 441 kts 348°
2026-05-04 15:38 35.81461 -77.97030 36087 ft 442 kts 347°
2026-05-04 15:38 35.87629 -77.97549 36087 ft 443 kts 348°
2026-05-04 15:39 35.93764 -77.98061 36086 ft 442 kts 348°
2026-05-04 15:40 36.02964 -77.98829 36070 ft 438 kts 348°
2026-05-04 15:40 36.09031 -77.99340 36073 ft 441 kts 348°
2026-05-04 15:41 36.15158 -77.99856 36066 ft 442 kts 348°
2026-05-04 15:41 36.21293 -78.00378 36068 ft 443 kts 348°
2026-05-04 15:42 36.27422 -78.00893 36068 ft 443 kts 348°
2026-05-04 15:42 36.33534 -78.01376 36064 ft 442 kts 349°
2026-05-04 15:43 36.39751 -78.01199 36055 ft 453 kts 359°
2026-05-04 15:43 36.46016 -77.99911 36043 ft 457 kts
2026-05-04 15:44 36.52188 -77.98253 36067 ft 459 kts
2026-05-04 15:44 36.58437 -77.96529 36056 ft 459 kts
2026-05-04 15:45 36.64695 -77.94830 36072 ft 461 kts
2026-05-04 15:45 36.70947 -77.93154 36069 ft 458 kts
2026-05-04 15:46 36.77178 -77.91501 36068 ft 459 kts
2026-05-04 15:46 36.83427 -77.89852 36060 ft 460 kts
2026-05-04 15:47 36.89673 -77.88200 36049 ft 459 kts
2026-05-04 15:47 36.95909 -77.86552 36042 ft 460 kts
2026-05-04 15:48 37.02144 -77.84901 36039 ft 460 kts
2026-05-04 15:48 37.11512 -77.82413 36041 ft 458 kts
2026-05-04 15:49 37.17730 -77.80756 36036 ft 456 kts
2026-05-04 15:49 37.23944 -77.79101 36033 ft 457 kts
2026-05-04 15:50 37.30165 -77.77441 36029 ft 458 kts
2026-05-04 15:50 37.36346 -77.75790 36022 ft 455 kts
2026-05-04 15:51 37.42540 -77.74132 36030 ft 457 kts
2026-05-04 15:51 37.48717 -77.72398 36024 ft 457 kts
2026-05-04 15:52 37.54759 -77.69518 36032 ft 468 kts 20°
2026-05-04 15:52 37.60377 -77.65395 36021 ft 475 kts 26°
2026-05-04 15:53 37.65933 -77.60834 36022 ft 473 kts 27°
2026-05-04 15:53 37.71402 -77.56278 36033 ft 473 kts 27°
2026-05-04 15:54 37.76913 -77.51722 36023 ft 472 kts 27°
2026-05-04 15:54 37.82399 -77.47224 36025 ft 474 kts 27°
2026-05-04 15:55 37.87915 -77.42715 36020 ft 472 kts 26°
2026-05-04 15:55 37.93435 -77.38207 36019 ft 473 kts 26°
2026-05-04 15:56 37.98949 -77.33696 36010 ft 471 kts 27°
2026-05-04 15:56 38.04443 -77.29204 36009 ft 472 kts 27°
2026-05-04 15:57 38.09964 -77.24683 36004 ft 472 kts 27°
2026-05-04 15:57 38.15456 -77.20179 35999 ft 472 kts 27°
2026-05-04 15:58 38.20982 -77.15637 36007 ft 475 kts 27°
2026-05-04 15:58 38.26480 -77.11111 36002 ft 473 kts 27°
2026-05-04 15:59 38.31990 -77.06449 36000 ft 476 kts 30°
2026-05-04 15:59 38.37275 -77.01429 35999 ft 478 kts 32°
2026-05-04 16:00 38.42543 -76.96230 35984 ft 477 kts 32°
2026-05-04 16:00 38.47767 -76.91082 35998 ft 479 kts 32°
2026-05-04 16:01 38.52750 -76.86208 35991 ft 477 kts 32°
2026-05-04 16:01 38.57909 -76.81187 35991 ft 479 kts 32°
2026-05-04 16:02 38.62993 -76.76244 35999 ft 477 kts 31°
2026-05-04 16:03 38.70802 -76.68653 35996 ft 479 kts 32°
2026-05-04 16:03 38.75964 -76.63626 36247 ft 482 kts 32°
2026-05-04 16:03 38.78600 -76.61053 35831 ft 472 kts 32°
2026-05-04 16:04 38.81176 -76.58532 36154 ft 479 kts 32°
2026-05-04 16:04 38.86190 -76.53625 35989 ft 470 kts 32°
2026-05-04 16:04 38.88791 -76.51077 35989 ft 473 kts 32°
2026-05-04 16:05 38.93952 -76.46018 35994 ft 475 kts 31°
2026-05-04 16:06 39.01811 -76.38294 35996 ft 476 kts 32°
2026-05-04 16:07 39.11500 -76.27573 36004 ft 480 kts 38°
2026-05-04 16:08 39.21165 -76.15995 35744 ft 480 kts 38°
2026-05-04 16:08 39.28277 -76.07571 35044 ft 473 kts 37°
2026-05-04 16:09 39.33150 -76.01827 35016 ft 473 kts 37°
2026-05-04 16:10 39.42759 -75.90501 34997 ft 474 kts 37°